Weather History for KHVR - September, 2012

Change the Weather History Date:

Sunday, September 2, 2012

  Actual Average Record
Temperature  
Mean Temperature 61 °F 62 °F  
Max Temperature 82 °F 77 °F 101 °F (1998)
Min Temperature 40 °F 47 °F 32 °F (1974)
Degree Days  
Heating Degree Days 4 5  
Month to date heating degree days 4 10  
Since 1 July heating degree days 46 93  
Cooling Degree Days 0 2  
Month to date cooling degree days 1 4  
Year to date cooling degree days 496 371  
Growing Degree Days 13 (Base 50)    
Moisture  
Dew Point 23 °F    
Average Humidity 29    
Maximum Humidity 45    
Minimum Humidity 12    
Precipitation  
Precipitation 0.00 in 0.04 in 0.66 in (1887)
Month to date precipitation T 0.07  
Year to date precipitation 10.14 8.74  
Snow  
Snow 0.00 in 0.00 in T in (1962)
Month to date snowfall 0.0 0.0  
Since 1 July snowfall 0.0 0.0  
Since 1 September snowfall 0.0 0.0  
Snow Depth 0.00 in    
Sea Level Pressure  
Sea Level Pressure 29.87 in    
Wind  
Wind Speed 15 mph (WSW)    
Max Wind Speed 31 mph    
Max Gust Speed 43 mph    
Visibility 10 miles    
Events      
T = Trace of Precipitation, MM = Missing Value Source: NWS Daily Summary

Daily Weather History Graph

Daily Weather History Graph

Search for Another Location

Airport or City:

Trip Planner

Search our weather history database for the weather conditions in past years. The results will help you decide how hot, cold, wet, or windy it might be!

Date:

Astronomy

Sep. 02, 2012 Rise Set
Actual Time 6:38 AM MDT 7:57 PM MDT
Civil Twilight 6:06 AM MDT 8:29 PM MDT
Nautical Twilight 5:26 AM MDT 9:09 PM MDT
Astronomical Twilight 4:44 AM MDT 9:51 PM MDT
Moon 8:28 PM MDT (9/2) 9:06 AM MDT (9/2)
Length of Visible Light 14h 23m
Length of Day
13h 19m
Waning Gibbous, 95% of the Moon is Illuminated
Sep 2
Waning Gibbous
Sep 8
Last Quarter
Sep 15
New
Sep 22
First Quarter
Sep 29
Full

Hourly Weather History & Observations

Time (MDT) Temp. Windchill Dew Point Humidity Pressure Visibility Wind Dir Wind Speed Gust Speed Precip Events Conditions
12:53 AM 48.9 °F - 19.9 °F 32% 29.88 in 10.0 mi SSW 5.8 mph - N/A   Clear
1:53 AM 44.6 °F 43.1 °F 24.8 °F 46% 29.91 in 10.0 mi South 3.5 mph - N/A   Clear
2:53 AM 46.9 °F - 21.0 °F 36% 29.89 in 10.0 mi SW 12.7 mph - N/A   Clear
3:53 AM 46.0 °F 41.9 °F 19.9 °F 35% 29.89 in 10.0 mi SW 8.1 mph - N/A   Clear
4:53 AM 44.1 °F 41.5 °F 19.9 °F 38% 29.90 in 10.0 mi WSW 4.6 mph - N/A   Clear
5:53 AM 46.0 °F 41.0 °F 19.9 °F 35% 29.90 in 10.0 mi SW 10.4 mph - N/A   Clear
6:53 AM 46.9 °F - 21.9 °F 37% 29.91 in 10.0 mi SW 10.4 mph - N/A   Clear
7:53 AM 59.0 °F - 23.0 °F 25% 29.90 in 10.0 mi SW 13.8 mph - N/A   Clear
8:53 AM 64.0 °F - 23.0 °F 21% 29.90 in 10.0 mi SW 18.4 mph - N/A   Clear
9:53 AM 69.1 °F - 26.1 °F 20% 29.91 in 10.0 mi West 26.5 mph 32.2 mph N/A   Clear
10:53 AM 72.0 °F - 27.0 °F 19% 29.91 in 10.0 mi West 21.9 mph 32.2 mph N/A   Clear
11:53 AM 75.0 °F - 27.0 °F 17% 29.90 in 10.0 mi WSW 21.9 mph 32.2 mph N/A   Clear
12:53 PM 77.0 °F - 24.1 °F 14% 29.88 in 10.0 mi West 26.5 mph 33.4 mph N/A   Clear
1:53 PM 80.1 °F - 25.0 °F 13% 29.86 in 10.0 mi West 24.2 mph 29.9 mph N/A   Clear
2:53 PM 81.0 °F - 24.1 °F 12% 29.84 in 10.0 mi West 21.9 mph 34.5 mph N/A   Clear
3:53 PM 81.0 °F - 25.0 °F 13% 29.83 in 10.0 mi WSW 24.2 mph 31.1 mph N/A   Clear
4:53 PM 81.0 °F - 24.1 °F 12% 29.83 in 10.0 mi West 17.3 mph 26.5 mph N/A   Clear
5:53 PM 79.0 °F - 24.1 °F 13% 29.83 in 10.0 mi West 21.9 mph - N/A   Clear
6:53 PM 77.0 °F - 21.9 °F 13% 29.83 in 10.0 mi West 15.0 mph 27.6 mph N/A   Clear
7:53 PM 73.0 °F - 21.0 °F 14% 29.83 in 10.0 mi WNW 12.7 mph - N/A   Clear
8:53 PM 63.0 °F - 21.9 °F 21% 29.85 in 10.0 mi SSW 6.9 mph - N/A   Clear
9:53 PM 66.0 °F - 24.1 °F 20% 29.85 in 10.0 mi SW 9.2 mph - N/A   Clear
10:53 PM 66.0 °F - 24.1 °F 20% 29.86 in 10.0 mi West 6.9 mph - N/A   Clear
11:53 PM 59.0 °F - 24.1 °F 26% 29.88 in 10.0 mi SW 6.9 mph - N/A   Clear